Showing default

WILDFIRE 3, 57758

Orbit data source: Space-Track

WILDFIRE 3, 57758 is a payload satellite owned by SDA (US) in LEO that was launched on Sat, 02 Sep 2023 UTC via an FALCON 9 launch vehicle from the Air Force Western Test Range (AFWTR). Payload-class satellites include a variety of spacecraft equipped with specific instruments for various scientific and technological missions. These include communications satellites like Starlink; space stations such as the ISS; scientific satellites like the Hubble; Earth observation satellites from companies like Planet Labs, Umbra, and HawkEye 360; GPS; miniature CubeSats for education and research; and military/defense satellites.

Loading next visibility...
Identifier
57758, 2023-133C
Orbit
LEO
Country
Flag of USUS
Related business
Manufacturer
TYVAK/LMSSD
Mission
Operational Defense Communications
Bus & Motor
MAVERICKS, Unknown motor
Mass
~300 kg wet, ~300 kg dry
Launch date (UTC)
2023-09-02 (2 years ago)
Launch vehicle
FALCON 9
Launch site
Air Force Western Test Range (AFWTR)
Object type
Payload
Rocket body
Debris
Shape & HBR
Box + 2 Pan, 1.3 m
Radar Cross Section
0.713 m², Medium (>0.1 m² and < 1m²)

Expand to show TLE details & history
Last TLE update: 9 hours ago

TLE from 9 hours ago
0 WILDFIRE 3
1 57758U 23133C   25347.01286782  .00000112  00000-0  87917-4 0  9999
2 57758  80.9953 184.9932 0009154 136.4243 223.7639 13.86096102115304
Epoch: 2025-12-13T00:18Z
TLE epoch observation values (Epoch: 2025-12-13T00:18:31.779Z)
Latitude
0.00003°
Longitude
98.41455°
Altitude
950.046 km
Speed
7.374 km/s
True Right ascension
12h 19m 58s
True Declination
0° 00' 00"
Sunlit
Object was in daylight at epoch
Visualization orbit readout
Latitude
Unknown
Longitude
Unknown
Altitude
Unknown
Speed
Unknown
Apparent Right ascension
Unknown
Apparent Declination
Unknown
Sunlit
N/A
Visualization observer readout
Local Sidereal Time
07:32:39
Azimuth
Unknown
Elevation
Unknown
Doppler factor
Unknown
Orbital elements
Apogee altitude
946.261 km
Perigee altitude
932.864 km
Semi-major axis
7,317.699 km
Eccentricity
0.00092
Inclination
80.9953°
RAAN
184.9932°
Arg. of periapsis
136.4243°
True anomaly
223.6914°
Mean anomaly
223.7639°
Eccentric anomaly
223.72765°
Mean motion
3.46722 °/min
Orbital period
103.83 mins
BSTAR
0.000087917
Loading maneuver chart data...
Computing Atmospheric mass density...
Loading historical data...
Loading historical data...
Loading historical data...
Loading historical data...
Loading historical data...
Loading historical data...
Loading historical data...

Documentation

Showing up to 5 results
|